,,Stat5,,Stat1,,Stat2,,Stat3,,Stat4,,Wind1,,Wind1,
time,status,PA1M_AVG,status,PR1M_SUM,status,RH1M_AVG,status,SR1M_AVG,status,TA1M_AVG,status,W1dAve1m,status,W1sAve1m,
2003-04-01, 00:00:01,VALID,918.311,VALID,0,VALID,98.9715,VALID,-0.0849042,VALID,20.1095,VALID,20,VALID,0.886719,
2003-04-01, 00:01:00,VALID,918.298,VALID,0,VALID,99.0122,VALID,-0.0679233,VALID,20.1224,VALID,27,VALID,0.780633,
2003-04-01, 00:02:00,VALID,918.284,VALID,0,VALID,98.9881,VALID,-0.101885,VALID,20.1351,VALID,18,VALID,0.810742,
2003-04-01, 00:03:00,VALID,918.266,VALID,0,VALID,98.955,VALID,-0.101885,VALID,20.1249,VALID,16,VALID,0.643229,
2003-04-01, 00:04:00,VALID,918.264,VALID,0,VALID,98.983,VALID,-0.101885,VALID,20.1388,VALID,9,VALID,0.34375,
2003-04-01, 00:05:00,VALID,918.262,VALID,0,VALID,98.899,VALID,-0.0509425,VALID,20.1057,VALID,354,VALID,0.509014,
2003-04-01, 00:06:00,VALID,918.236,VALID,0,VALID,98.8177,VALID,-0.118866,VALID,20.0831,VALID,358,VALID,0.53145,
2003-04-01, 00:07:00,VALID,918.236,VALID,0,VALID,98.8253,VALID,-0.0849042,VALID,20.0672,VALID,357,VALID,0.441071,
2003-04-01, 00:08:00,VALID,918.226,VALID,0,VALID,98.8177,VALID,-0.0849042,VALID,20.064,VALID,357,VALID,0.196484,
2003-04-01, 00:09:00,VALID,918.219,VALID,0,VALID,98.8151,VALID,-0.101885,VALID,20.064,VALID,350,VALID,0.444444,
2003-04-01, 00:10:00,VALID,918.205,VALID,0.2,VALID,98.7871,VALID,-0.118866,VALID,20.0704,VALID,341,VALID,0.449219,
2003-04-01, 00:11:00,VALID,918.205,VALID,0,VALID,98.8113,VALID,-0.0849042,VALID,20.0769,VALID,330,VALID,0.254645,
2003-04-01, 00:12:00,VALID,918.203,VALID,0,VALID,98.8253,VALID,-0.101885,VALID,20.0936,VALID,305,VALID,0.198602,
2003-04-01, 00:13:00,VALID,918.19,VALID,0,VALID,98.8545,VALID,-0.0849042,VALID,20.1065,VALID,302,VALID,0,
2003-04-01, 00:14:00,VALID,918.157,VALID,0,VALID,98.9296,VALID,-0.0849042,VALID,20.1359,VALID,302,VALID,0.00126689,
2003-04-01, 00:15:00,VALID,918.154,VALID,0,VALID,98.9563,VALID,-0.101885,VALID,20.1483,VALID,319,VALID,0.190625,
2003-04-01, 00:16:00,VALID,918.128,VALID,0,VALID,98.9436,VALID,-0.118866,VALID,20.152,VALID,337,VALID,0.241982,
2003-04-01, 00:17:00,VALID,918.098,VALID,0,VALID,98.9321,VALID,-0.118866,VALID,20.1513,VALID,344,VALID,0.104096,
2003-04-01, 00:18:00,VALID,918.075,VALID,0,VALID,98.9258,VALID,-0.118866,VALID,20.1488,VALID,344,VALID,0,
2003-04-01, 00:19:00,VALID,918.054,VALID,0,VALID,98.9232,VALID,-0.118866,VALID,20.1453,VALID,344,VALID,0,
2003-04-01, 00:20:00,VALID,918.033,VALID,0,VALID,98.9003,VALID,-0.118866,VALID,20.1388,VALID,344,VALID,0,
2003-04-01, 00:21:00,VALID,918.012,VALID,0,VALID,98.894,VALID,-0.101885,VALID,20.1421,VALID,344,VALID,0,
2003-04-01, 00:22:00,VALID,917.999,VALID,0,VALID,98.8851,VALID,-0.118866,VALID,20.1189,VALID,344,VALID,0,
2003-04-01, 00:23:00,VALID,917.96,VALID,0,VALID,98.8584,VALID,-0.0849042,VALID,20.1028,VALID,344,VALID,0,
2003-04-01, 00:24:00,VALID,917.927,VALID,0,VALID,98.8444,VALID,-0.101885,VALID,20.1028,VALID,344,VALID,0,
2003-04-01, 00:25:00,VALID,917.913,VALID,0,VALID,98.8736,VALID,-0.135847,VALID,20.103,VALID,344,VALID,0.126563,
2003-04-01, 00:26:00,VALID,917.897,VALID,0,VALID,98.9156,VALID,-0.101885,VALID,20.1,VALID,344,VALID,0.201389,
2003-04-01, 00:27:00,VALID,917.87,VALID,0,VALID,98.8978,VALID,-0.101885,VALID,20.1068,VALID,1,VALID,0.230252,
2003-04-01, 00:28:00,VALID,917.86,VALID,0,VALID,98.793,VALID,-0.135847,VALID,20.0871,VALID,37,VALID,0.421464,
2003-04-01, 00:29:00,VALID,917.842,VALID,0,VALID,98.7948,VALID,-0.0679233,VALID,20.0804,VALID,40,VALID,0.422286,
2003-04-01, 00:30:00,VALID,917.807,VALID,0,VALID,98.7223,VALID,-0.101885,VALID,20.0642,VALID,54,VALID,0.449219,
2003-04-01, 00:31:00,VALID,917.807,VALID,0,VALID,98.6384,VALID,-0.101885,VALID,20.0311,VALID,54,VALID,0.517948,
2003-04-01, 00:32:00,VALID,917.787,VALID,0,VALID,98.6218,VALID,-0.101885,VALID,20.0125,VALID,54,VALID,0.445313,
2003-04-01, 00:33:00,VALID,917.778,VALID,0,VALID,98.5964,VALID,-0.0849042,VALID,20.0028,VALID,56,VALID,0.546453,
2003-04-01, 00:34:00,VALID,917.771,VALID,0,VALID,98.5341,VALID,-0.101885,VALID,19.9871,VALID,63,VALID,0.513363,
2003-04-01, 00:35:00,VALID,917.751,VALID,0,VALID,98.5188,VALID,-0.0849042,VALID,19.9737,VALID,65,VALID,0.301282,
2003-04-01, 00:36:00,VALID,917.746,VALID,0,VALID,98.5481,VALID,-0.0849042,VALID,19.9675,VALID,77,VALID,0.251402,
2003-04-01, 00:37:00,VALID,917.727,VALID,0,VALID,98.5735,VALID,-0.101885,VALID,19.9705,VALID,80,VALID,0.259079,
2003-04-01, 00:38:00,VALID,917.708,VALID,0,VALID,98.6104,VALID,0,VALID,19.9789,VALID,80,VALID,0.113076,
2003-04-01, 00:39:00,VALID,917.683,VALID,0,VALID,98.6218,VALID,0,VALID,19.9757,VALID,80,VALID,0.00440705,
2003-04-01, 00:40:00,VALID,917.665,VALID,0,VALID,98.6765,VALID,0,VALID,19.9918,VALID,80,VALID,0.11278,
2003-04-01, 00:41:00,VALID,917.625,VALID,0,VALID,98.7948,VALID,-0.0169808,VALID,20.0209,VALID,90,VALID,0.170496,
2003-04-01, 00:42:00,VALID,917.611,VALID,0,VALID,98.7935,VALID,-0.0339617,VALID,20.0242,VALID,122,VALID,0.247944,
2003-04-01, 00:43:00,VALID,917.604,VALID,0,VALID,98.8253,VALID,-0.0169808,VALID,20.0339,VALID,122,VALID,0.109375,
2003-04-01, 00:44:00,VALID,917.585,VALID,0,VALID,98.8685,VALID,-0.0169808,VALID,20.0533,VALID,122,VALID,0.148872,
2003-04-01, 00:45:00,VALID,917.564,VALID,0,VALID,98.8838,VALID,-0.0339617,VALID,20.063,VALID,122,VALID,0,
2003-04-01, 00:46:00,VALID,917.568,VALID,0,VALID,98.9232,VALID,-0.0169808,VALID,20.0831,VALID,122,VALID,0.0643503,
2003-04-01, 00:47:00,VALID,917.567,VALID,0,VALID,98.927,VALID,0,VALID,20.0891,VALID,122,VALID,0.105152,
2003-04-01, 00:48:00,VALID,917.568,VALID,0,VALID,98.9626,VALID,0,VALID,20.0888,VALID,122,VALID,0,
2003-04-01, 00:49:00,VALID,917.567,VALID,0,VALID,98.9855,VALID,0.0169808,VALID,20.1018,VALID,122,VALID,0,
2003-04-01, 00:50:00,VALID,917.564,VALID,0,VALID,98.9931,VALID,-0.0169808,VALID,20.0985,VALID,122,VALID,0.0859375,
2003-04-01, 00:51:00,VALID,917.554,VALID,0,VALID,98.9779,VALID,-0.0169808,VALID,20.0955,VALID,122,VALID,0.209736,
2003-04-01, 00:52:00,VALID,917.555,VALID,0,VALID,99.0478,VALID,0,VALID,20.0923,VALID,122,VALID,0.0134766,
2003-04-01, 00:53:00,VALID,917.545,VALID,0,VALID,99.0771,VALID,-0.0849042,VALID,20.113,VALID,122,VALID,0,
2003-04-01, 00:54:00,VALID,917.553,VALID,0,VALID,99.1203,VALID,-0.101885,VALID,20.1262,VALID,122,VALID,0,
2003-04-01, 00:55:00,VALID,917.536,VALID,0,VALID,99.1521,VALID,-0.0849042,VALID,20.1291,VALID,122,VALID,0,
2003-04-01, 00:56:01,VALID,917.524,VALID,0,VALID,99.1864,VALID,-0.0679233,VALID,20.1485,VALID,122,VALID,0,
2003-04-01, 00:57:00,VALID,917.522,VALID,0,VALID,99.2398,VALID,-0.101885,VALID,20.1838,VALID,122,VALID,0,
2003-04-01, 00:58:00,VALID,917.522,VALID,0,VALID,99.2373,VALID,-0.0679233,VALID,20.197,VALID,122,VALID,0,
2003-04-01, 00:59:00,VALID,917.511,VALID,0,VALID,99.1991,VALID,-0.101885,VALID,20.1906,VALID,122,VALID,0,
2003-04-01, 01:00:00,VALID,917.507,VALID,0,VALID,99.2309,VALID,-0.101885,VALID,20.1843,VALID,122,VALID,0,
2003-04-01, 01:01:00,VALID,917.498,VALID,0,VALID,99.2589,VALID,-0.0849042,VALID,20.1968,VALID,122,VALID,0,
2003-04-01, 01:02:00,VALID,917.503,VALID,0,VALID,99.2869,VALID,-0.0849042,VALID,20.2231,VALID,122,VALID,0,
2003-04-01, 01:03:00,VALID,917.495,VALID,0,VALID,99.2805,VALID,-0.0849042,VALID,20.2134,VALID,122,VALID,0,
2003-04-01, 01:04:00,VALID,917.483,VALID,0,VALID,99.2678,VALID,-0.0509425,VALID,20.2226,VALID,122,VALID,0,
2003-04-01, 01:05:00,VALID,917.476,VALID,0,VALID,99.2716,VALID,-0.0679233,VALID,20.2291,VALID,122,VALID,0.0179476,
2003-04-01, 01:06:00,VALID,917.445,VALID,0,VALID,99.2475,VALID,-0.0849042,VALID,20.2129,VALID,122,VALID,0.0493304,
2003-04-01, 01:07:00,VALID,917.419,VALID,0,VALID,99.2297,VALID,-0.0679233,VALID,20.197,VALID,122,VALID,0,
2003-04-01, 01:08:00,VALID,917.39,VALID,0,VALID,99.236,VALID,-0.0679233,VALID,20.1968,VALID,122,VALID,0,
2003-04-01, 01:09:00,VALID,917.383,VALID,0,VALID,99.2208,VALID,-0.0849042,VALID,20.1841,VALID,122,VALID,0,
2003-04-01, 01:10:00,VALID,917.372,VALID,0,VALID,99.2373,VALID,-0.0849042,VALID,20.1774,VALID,122,VALID,0,
2003-04-01, 01:11:01,VALID,917.357,VALID,0,VALID,99.2525,VALID,-0.0509425,VALID,20.1739,VALID,122,VALID,0.196957,
2003-04-01, 01:12:00,VALID,917.358,VALID,0,VALID,99.2411,VALID,-0.0509425,VALID,20.1712,VALID,122,VALID,0.0355674,
2003-04-01, 01:13:00,VALID,917.348,VALID,0,VALID,99.2665,VALID,-0.0339617,VALID,20.1779,VALID,122,VALID,0,
2003-04-01, 01:14:00,VALID,917.345,VALID,0,VALID,99.3225,VALID,-0.0509425,VALID,20.1906,VALID,122,VALID,0,
2003-04-01, 01:15:01,VALID,917.353,VALID,0,VALID,99.3021,VALID,-0.0509425,VALID,20.197,VALID,122,VALID,0.0473214,
2003-04-01, 01:16:00,VALID,917.352,VALID,0,VALID,99.2996,VALID,-0.0339617,VALID,20.197,VALID,122,VALID,0.0128906,
2003-04-01, 01:17:01,VALID,917.351,VALID,0,VALID,99.2386,VALID,0,VALID,20.1906,VALID,121,VALID,0.140408,
2003-04-01, 01:18:01,VALID,917.348,VALID,0,VALID,99.1991,VALID,-0.0169808,VALID,20.1615,VALID,112,VALID,0.522352,
2003-04-01, 01:19:01,VALID,917.333,VALID,0,VALID,99.1712,VALID,-0.0169808,VALID,20.1251,VALID,112,VALID,0.646234,
2003-04-01, 01:20:00,VALID,917.33,VALID,0,VALID,99.1712,VALID,-0.0169808,VALID,20.1097,VALID,109,VALID,0.448808,
2003-04-01, 01:21:00,VALID,917.303,VALID,0,VALID,99.2271,VALID,-0.0169808,VALID,20.1065,VALID,102,VALID,0.317023,
2003-04-01, 01:22:00,VALID,917.298,VALID,0,VALID,99.2462,VALID,-0.0509425,VALID,20.0998,VALID,101,VALID,0.0589105,
2003-04-01, 01:23:01,VALID,917.28,VALID,0,VALID,99.2525,VALID,0.101885,VALID,20.1152,VALID,101,VALID,0,
2003-04-01, 01:24:00,VALID,917.247,VALID,0,VALID,99.2602,VALID,0.0849042,VALID,20.1114,VALID,101,VALID,0,
2003-04-01, 01:25:00,VALID,917.21,VALID,0,VALID,99.2907,VALID,0.0509425,VALID,20.1182,VALID,101,VALID,0.000822368,
2003-04-01, 01:26:01,VALID,917.176,VALID,0,VALID,99.3187,VALID,0.0339617,VALID,20.1443,VALID,101,VALID,0,
2003-04-01, 01:27:00,VALID,917.149,VALID,0,VALID,99.3314,VALID,0.0339617,VALID,20.1408,VALID,101,VALID,0.184295,
2003-04-01, 01:28:00,VALID,917.127,VALID,0,VALID,99.3199,VALID,0.0339617,VALID,20.1667,VALID,62,VALID,0.374789,
2003-04-01, 01:29:00,VALID,917.115,VALID,0,VALID,99.2843,VALID,0.101885,VALID,20.1535,VALID,55,VALID,0.291735,
2003-04-01, 01:30:00,VALID,917.101,VALID,0,VALID,99.2513,VALID,0.0169808,VALID,20.1438,VALID,55,VALID,0.279447,
2003-04-01, 01:31:00,VALID,917.074,VALID,0,VALID,99.2347,VALID,0.0679233,VALID,20.1338,VALID,55,VALID,0.434696,
2003-04-01, 01:32:01,VALID,917.058,VALID,0,VALID,99.25,VALID,0.0339617,VALID,20.1373,VALID,55,VALID,0.462316,
2003-04-01, 01:33:00,VALID,917.042,VALID,0,VALID,99.264,VALID,0.0679233,VALID,20.1343,VALID,55,VALID,0.323191,
2003-04-01, 01:34:00,VALID,917.03,VALID,0,VALID,99.2716,VALID,0.0339617,VALID,20.1468,VALID,54,VALID,0.330236,
2003-04-01, 01:35:00,VALID,917.023,VALID,0,VALID,99.3085,VALID,0.0169808,VALID,20.1764,VALID,36,VALID,0.478516,
2003-04-01, 01:36:00,VALID,917.009,VALID,0,VALID,99.2996,VALID,0,VALID,20.1793,VALID,24,VALID,0.582899,
2003-04-01, 01:37:01,VALID,916.991,VALID,0,VALID,99.2449,VALID,0,VALID,20.1637,VALID,24,VALID,0.658512,
2003-04-01, 01:38:01,VALID,916.977,VALID,0,VALID,99.1941,VALID,-0.0849042,VALID,20.1291,VALID,24,VALID,0.600929,
2003-04-01, 01:39:00,VALID,916.948,VALID,0,VALID,99.1724,VALID,-0.0849042,VALID,20.1097,VALID,24,VALID,0.533036,
2003-04-01, 01:40:00,VALID,916.941,VALID,0,VALID,99.1724,VALID,-0.0679233,VALID,20.0933,VALID,23,VALID,0.498437,
2003-04-01, 01:41:00,VALID,916.925,VALID,0,VALID,99.1915,VALID,-0.101885,VALID,20.0871,VALID,23,VALID,0.621299,
2003-04-01, 01:42:01,VALID,916.885,VALID,0,VALID,99.2347,VALID,-0.0849042,VALID,20.0903,VALID,23,VALID,0.702925,
2003-04-01, 01:43:01,VALID,916.855,VALID,0,VALID,99.2182,VALID,-0.0509425,VALID,20.0839,VALID,20,VALID,0.819141,
2003-04-01, 01:44:00,VALID,916.821,VALID,0,VALID,99.1737,VALID,-0.0509425,VALID,20.051,VALID,19,VALID,0.769737,
2003-04-01, 01:45:01,VALID,916.796,VALID,0,VALID,99.1826,VALID,-0.101885,VALID,20.0324,VALID,17,VALID,0.759502,
2003-04-01, 01:46:00,VALID,916.786,VALID,0,VALID,99.222,VALID,-0.0849042,VALID,20.0451,VALID,12,VALID,0.489183,
2003-04-01, 01:47:01,VALID,916.762,VALID,0,VALID,99.2297,VALID,-0.101885,VALID,20.0322,VALID,4,VALID,0.408053,
2003-04-01, 01:48:00,VALID,916.755,VALID,0,VALID,99.222,VALID,-0.0679233,VALID,20.0195,VALID,352,VALID,0.484375,
2003-04-01, 01:49:01,VALID,916.73,VALID,0,VALID,99.2182,VALID,-0.0679233,VALID,20.0227,VALID,354,VALID,0.340848,
2003-04-01, 01:50:00,VALID,916.707,VALID,0,VALID,99.2475,VALID,-0.101885,VALID,20.0195,VALID,347,VALID,0.51875,
2003-04-01, 01:51:00,VALID,916.697,VALID,0,VALID,99.236,VALID,-0.0679233,VALID,20.0299,VALID,309,VALID,0.398003,
2003-04-01, 01:52:01,VALID,916.681,VALID,0,VALID,99.2309,VALID,-0.101885,VALID,20.0095,VALID,332,VALID,0.469184,
2003-04-01, 01:53:00,VALID,916.667,VALID,0,VALID,99.2411,VALID,0,VALID,20.0242,VALID,360,VALID,0.395481,
2003-04-01, 01:54:01,VALID,916.628,VALID,0,VALID,99.2589,VALID,0.0339617,VALID,20.0175,VALID,3,VALID,0.462582,
2003-04-01, 01:55:00,VALID,916.609,VALID,0,VALID,99.2793,VALID,0.0169808,VALID,20.0401,VALID,345,VALID,0.25359,
2003-04-01, 01:56:00,VALID,916.583,VALID,0,VALID,99.2907,VALID,0,VALID,20.0597,VALID,358,VALID,0.399493,
2003-04-01, 01:57:00,VALID,916.561,VALID,0,VALID,99.2983,VALID,0,VALID,20.0789,VALID,336,VALID,0.590625,
2003-04-01, 01:58:00,VALID,916.555,VALID,0,VALID,99.3021,VALID,0.0169808,VALID,20.1085,VALID,324,VALID,0.461143,
2003-04-01, 01:59:01,VALID,916.55,VALID,0,VALID,99.3212,VALID,0.0169808,VALID,20.1373,VALID,315,VALID,0.224873,
2003-04-01, 02:00:00,VALID,916.551,VALID,0,VALID,99.2818,VALID,0,VALID,20.1179,VALID,277,VALID,0.367188,
2003-04-01, 02:01:00,VALID,916.532,VALID,0,VALID,99.2373,VALID,0,VALID,20.1012,VALID,269,VALID,0.142969,
2003-04-01, 02:02:01,VALID,916.547,VALID,0,VALID,99.2398,VALID,0.0169808,VALID,20.0953,VALID,261,VALID,0.231908,
2003-04-01, 02:03:00,VALID,916.525,VALID,0,VALID,99.2144,VALID,0,VALID,20.0826,VALID,247,VALID,0.099301,
2003-04-01, 02:04:00,VALID,916.522,VALID,0,VALID,99.2144,VALID,0,VALID,20.0565,VALID,247,VALID,0.382227,
2003-04-01, 02:05:00,VALID,916.517,VALID,0,VALID,99.2131,VALID,0,VALID,20.0438,VALID,247,VALID,0.423277,
2003-04-01, 02:06:01,VALID,916.499,VALID,0,VALID,99.2195,VALID,0,VALID,20.0244,VALID,247,VALID,0.313393,
2003-04-01, 02:07:00,VALID,916.49,VALID,0,VALID,99.2386,VALID,0.0169808,VALID,20.0045,VALID,242,VALID,0.45625,
2003-04-01, 02:08:00,VALID,916.474,VALID,0,VALID,99.2742,VALID,0.0169808,VALID,19.9884,VALID,241,VALID,0.202691,
2003-04-01, 02:09:01,VALID,916.483,VALID,0,VALID,99.2793,VALID,0,VALID,19.9953,VALID,241,VALID,0.323351,
2003-04-01, 02:10:01,VALID,916.476,VALID,0,VALID,99.306,VALID,0,VALID,19.9824,VALID,241,VALID,0.0745192,
2003-04-01, 02:11:00,VALID,916.472,VALID,0,VALID,99.3416,VALID,0,VALID,19.9822,VALID,241,VALID,0.00616776,
2003-04-01, 02:12:00,VALID,916.465,VALID,0,VALID,99.3861,VALID,0.0169808,VALID,20.0015,VALID,241,VALID,0,
2003-04-01, 02:13:00,VALID,916.458,VALID,0,VALID,99.4077,VALID,0,VALID,20.0015,VALID,241,VALID,0.247044,
2003-04-01, 02:14:00,VALID,916.444,VALID,0,VALID,99.414,VALID,0.0169808,VALID,20.0018,VALID,241,VALID,0.2398,
2003-04-01, 02:15:00,VALID,916.462,VALID,0,VALID,99.4242,VALID,0.0169808,VALID,20.0013,VALID,241,VALID,0.0931166,
2003-04-01, 02:16:00,VALID,916.449,VALID,0,VALID,99.4446,VALID,0.0339617,VALID,20.0304,VALID,241,VALID,0,
2003-04-01, 02:17:01,VALID,916.449,VALID,0,VALID,99.4725,VALID,0.0169808,VALID,20.0431,VALID,241,VALID,0,
2003-04-01, 02:18:00,VALID,916.445,VALID,0,VALID,99.4903,VALID,0.0509425,VALID,20.0368,VALID,241,VALID,0,
2003-04-01, 02:19:00,VALID,916.437,VALID,0,VALID,99.4992,VALID,0.0169808,VALID,20.0565,VALID,241,VALID,0,
2003-04-01, 02:20:00,VALID,916.417,VALID,0,VALID,99.5158,VALID,-0.0169808,VALID,20.0533,VALID,241,VALID,0,
2003-04-01, 02:21:01,VALID,916.412,VALID,0,VALID,99.5094,VALID,0.0169808,VALID,20.0567,VALID,241,VALID,0,
2003-04-01, 02:22:00,VALID,916.409,VALID,0,VALID,99.5094,VALID,0.0169808,VALID,20.0401,VALID,322,VALID,0.296875,
2003-04-01, 02:23:01,VALID,916.405,VALID,0,VALID,99.4954,VALID,-0.101885,VALID,20.0287,VALID,13,VALID,0.115119,
2003-04-01, 02:24:00,VALID,916.388,VALID,0,VALID,99.4802,VALID,-0.0849042,VALID,20.013,VALID,13,VALID,0,
2003-04-01, 02:25:00,VALID,916.392,VALID,0,VALID,99.4802,VALID,-0.101885,VALID,19.9968,VALID,13,VALID,0,
2003-04-01, 02:26:01,VALID,916.385,VALID,0,VALID,99.4954,VALID,-0.0849042,VALID,19.9966,VALID,13,VALID,0,
2003-04-01, 02:27:01,VALID,916.391,VALID,0,VALID,99.4967,VALID,-0.101885,VALID,19.9998,VALID,13,VALID,0,
2003-04-01, 02:28:01,VALID,916.388,VALID,0,VALID,99.4865,VALID,-0.101885,VALID,19.9839,VALID,13,VALID,0,
2003-04-01, 02:29:01,VALID,916.38,VALID,0,VALID,99.4853,VALID,-0.118866,VALID,19.9675,VALID,13,VALID,0.00211149,
2003-04-01, 02:30:00,VALID,916.366,VALID,0,VALID,99.4764,VALID,-0.118866,VALID,19.9615,VALID,13,VALID,0,
2003-04-01, 02:31:00,VALID,916.338,VALID,0,VALID,99.4853,VALID,-0.101885,VALID,19.9551,VALID,13,VALID,0,
2003-04-01, 02:32:01,VALID,916.305,VALID,0,VALID,99.4738,VALID,-0.118866,VALID,19.9419,VALID,13,VALID,0,
2003-04-01, 02:33:01,VALID,916.289,VALID,0,VALID,99.4776,VALID,-0.118866,VALID,19.9252,VALID,13,VALID,0,
2003-04-01, 02:34:01,VALID,916.278,VALID,0,VALID,99.4789,VALID,-0.101885,VALID,19.919,VALID,13,VALID,0,
2003-04-01, 02:35:01,VALID,916.242,VALID,0,VALID,99.4891,VALID,-0.0849042,VALID,19.9292,VALID,13,VALID,0,
2003-04-01, 02:36:01,VALID,916.214,VALID,0,VALID,99.4942,VALID,-0.101885,VALID,19.9158,VALID,13,VALID,0,
2003-04-01, 02:37:01,VALID,916.184,VALID,0,VALID,99.5018,VALID,-0.0509425,VALID,19.9185,VALID,13,VALID,0.0705181,
2003-04-01, 02:38:01,VALID,916.179,VALID,0,VALID,99.4776,VALID,0.0169808,VALID,19.9046,VALID,13,VALID,0.102364,
2003-04-01, 02:39:00,VALID,916.151,VALID,0,VALID,99.4611,VALID,0,VALID,19.8658,VALID,13,VALID,0,
2003-04-01, 02:40:01,VALID,916.135,VALID,0,VALID,99.4535,VALID,0.0509425,VALID,19.866,VALID,13,VALID,0.219196,
2003-04-01, 02:41:01,VALID,916.107,VALID,0,VALID,99.4306,VALID,0.0169808,VALID,19.8437,VALID,87,VALID,0.222461,
2003-04-01, 02:42:01,VALID,916.06,VALID,0,VALID,99.4229,VALID,0.0509425,VALID,19.8106,VALID,119,VALID,0.188802,
2003-04-01, 02:43:01,VALID,916.036,VALID,0,VALID,99.3823,VALID,0.0169808,VALID,19.7785,VALID,119,VALID,0.112413,
2003-04-01, 02:44:01,VALID,916.004,VALID,0,VALID,99.3734,VALID,0.0169808,VALID,19.7462,VALID,119,VALID,0.105152,
2003-04-01, 02:45:01,VALID,915.957,VALID,0,VALID,99.3746,VALID,0.0169808,VALID,19.7141,VALID,119,VALID,0.0869655,
2003-04-01, 02:46:01,VALID,915.936,VALID,0,VALID,99.3873,VALID,0,VALID,19.7012,VALID,119,VALID,0.0546875,
2003-04-01, 02:47:01,VALID,915.922,VALID,0,VALID,99.395,VALID,0.0339617,VALID,19.6818,VALID,119,VALID,0,
2003-04-01, 02:48:01,VALID,915.911,VALID,0,VALID,99.3899,VALID,0,VALID,19.6622,VALID,119,VALID,0,
2003-04-01, 02:49:01,VALID,915.898,VALID,0,VALID,99.3886,VALID,0,VALID,19.643,VALID,119,VALID,0,
2003-04-01, 02:50:01,VALID,915.88,VALID,0,VALID,99.3937,VALID,0.0169808,VALID,19.637,VALID,119,VALID,0,
2003-04-01, 02:51:01,VALID,915.877,VALID,0,VALID,99.3085,VALID,0,VALID,19.5943,VALID,119,VALID,0,
2003-04-01, 02:52:01,VALID,915.887,VALID,0,VALID,99.3276,VALID,0,VALID,19.556,VALID,119,VALID,0,
2003-04-01, 02:53:01,VALID,915.873,VALID,0,VALID,99.3924,VALID,0,VALID,19.5456,VALID,119,VALID,0.0563322,
2003-04-01, 02:54:01,VALID,915.882,VALID,0,VALID,99.3594,VALID,0.0509425,VALID,19.5329,VALID,119,VALID,0,
2003-04-01, 02:55:01,VALID,915.867,VALID,0,VALID,99.3479,VALID,0,VALID,19.5068,VALID,119,VALID,0,
2003-04-01, 02:56:01,VALID,915.86,VALID,0,VALID,99.3606,VALID,0,VALID,19.5008,VALID,119,VALID,0,
2003-04-01, 02:57:01,VALID,915.854,VALID,0,VALID,99.4306,VALID,0.0169808,VALID,19.5011,VALID,119,VALID,0,
2003-04-01, 02:58:01,VALID,915.829,VALID,0,VALID,99.4013,VALID,0,VALID,19.4844,VALID,119,VALID,0,
2003-04-01, 02:59:01,VALID,915.824,VALID,0,VALID,99.4064,VALID,0,VALID,19.469,VALID,119,VALID,0,
2003-04-01, 03:00:01,VALID,915.804,VALID,0,VALID,99.381,VALID,0,VALID,19.427,VALID,54,VALID,0.191189,
2003-04-01, 03:01:01,VALID,915.801,VALID,0,VALID,99.2322,VALID,0,VALID,19.3524,VALID,23,VALID,0.187901,
2003-04-01, 03:02:01,VALID,915.799,VALID,0,VALID,99.2602,VALID,0,VALID,19.3201,VALID,23,VALID,0.229441,
2003-04-01, 03:03:01,VALID,915.8,VALID,0,VALID,99.2386,VALID,-0.0339617,VALID,19.2887,VALID,23,VALID,0.394531,
2003-04-01, 03:04:01,VALID,915.781,VALID,0,VALID,99.2157,VALID,0.0169808,VALID,19.2199,VALID,23,VALID,0.377745,
2003-04-01, 03:05:00,VALID,915.779,VALID,0,VALID,99.2538,VALID,0,VALID,19.194,VALID,13,VALID,0.549262,
2003-04-01, 03:06:00,VALID,915.78,VALID,0,VALID,99.4458,VALID,0,VALID,19.2557,VALID,6,VALID,0.539696,
2003-04-01, 03:07:00,VALID,915.774,VALID,0,VALID,99.4865,VALID,0,VALID,19.2875,VALID,5,VALID,0.330181,
2003-04-01, 03:08:00,VALID,915.778,VALID,0,VALID,99.4547,VALID,0,VALID,19.2818,VALID,8,VALID,0.32492,
2003-04-01, 03:09:00,VALID,915.775,VALID,0,VALID,99.4166,VALID,0,VALID,19.233,VALID,8,VALID,0.378806,
2003-04-01, 03:10:00,VALID,915.776,VALID,0,VALID,99.4662,VALID,0,VALID,19.243,VALID,9,VALID,0.152027,
2003-04-01, 03:11:00,VALID,915.781,VALID,0,VALID,99.5603,VALID,-0.0169808,VALID,19.3143,VALID,9,VALID,0.0832648,
2003-04-01, 03:12:00,VALID,915.768,VALID,0,VALID,99.5984,VALID,0,VALID,19.3656,VALID,9,VALID,0.103365,
2003-04-01, 03:13:00,VALID,915.751,VALID,0,VALID,99.5883,VALID,0,VALID,19.3399,VALID,9,VALID,0.036258,
2003-04-01, 03:14:00,VALID,915.753,VALID,0,VALID,99.5654,VALID,0,VALID,19.3168,VALID,35,VALID,0.129825,
2003-04-01, 03:15:00,VALID,915.758,VALID,0,VALID,99.5704,VALID,0,VALID,19.3104,VALID,101,VALID,0.479235,
2003-04-01, 03:16:00,VALID,915.754,VALID,0,VALID,99.573,VALID,0,VALID,19.3009,VALID,139,VALID,0.653294,
2003-04-01, 03:17:00,VALID,915.76,VALID,0,VALID,99.6035,VALID,0,VALID,19.3136,VALID,152,VALID,0.8023,
2003-04-01, 03:18:00,VALID,915.767,VALID,0,VALID,99.6315,VALID,0.0169808,VALID,19.3434,VALID,151,VALID,0.692708,
2003-04-01, 03:19:00,VALID,915.757,VALID,0,VALID,99.6442,VALID,0.0169808,VALID,19.333,VALID,144,VALID,0.572163,
2003-04-01, 03:20:00,VALID,915.745,VALID,0,VALID,99.6468,VALID,-0.0169808,VALID,19.33,VALID,143,VALID,0.706503,
2003-04-01, 03:21:00,VALID,915.739,VALID,0,VALID,99.6607,VALID,-0.0169808,VALID,19.3536,VALID,147,VALID,0.726116,
2003-04-01, 03:22:00,VALID,915.74,VALID,0,VALID,99.6722,VALID,-0.0169808,VALID,19.3563,VALID,148,VALID,0.743973,
2003-04-01, 03:23:00,VALID,915.733,VALID,0,VALID,99.7027,VALID,-0.0169808,VALID,19.3559,VALID,150,VALID,0.719161,
2003-04-01, 03:24:00,VALID,915.734,VALID,0,VALID,99.704,VALID,-0.0679233,VALID,19.3824,VALID,152,VALID,0.535657,
2003-04-01, 03:25:00,VALID,915.745,VALID,0,VALID,99.7192,VALID,-0.0169808,VALID,19.3787,VALID,142,VALID,0.646094,
2003-04-01, 03:26:00,VALID,915.746,VALID,0,VALID,99.7421,VALID,-0.0169808,VALID,19.4178,VALID,144,VALID,0.757401,
2003-04-01, 03:27:00,VALID,915.744,VALID,0,VALID,99.7625,VALID,0,VALID,19.4464,VALID,144,VALID,0.749789,
2003-04-01, 03:28:00,VALID,915.754,VALID,0,VALID,99.7765,VALID,-0.0169808,VALID,19.4826,VALID,129,VALID,0.622796,
2003-04-01, 03:29:00,VALID,915.746,VALID,0,VALID,99.7726,VALID,-0.0169808,VALID,19.4983,VALID,126,VALID,0.632412,
2003-04-01, 03:30:00,VALID,915.732,VALID,0,VALID,99.7777,VALID,-0.0169808,VALID,19.5105,VALID,113,VALID,0.779447,
2003-04-01, 03:31:00,VALID,915.732,VALID,0,VALID,99.7866,VALID,-0.0169808,VALID,19.5438,VALID,103,VALID,0.764732,
2003-04-01, 03:32:00,VALID,915.725,VALID,0,VALID,99.7866,VALID,0,VALID,19.5406,VALID,98,VALID,0.833008,
2003-04-01, 03:33:00,VALID,915.728,VALID,0,VALID,99.793,VALID,0,VALID,19.5406,VALID,108,VALID,0.721788,
2003-04-01, 03:34:00,VALID,915.742,VALID,0,VALID,99.7981,VALID,-0.0169808,VALID,19.5336,VALID,123,VALID,0.598524,
2003-04-01, 03:35:00,VALID,915.75,VALID,0,VALID,99.7879,VALID,-0.0169808,VALID,19.5142,VALID,136,VALID,0.752956,
2003-04-01, 03:36:00,VALID,915.761,VALID,0,VALID,99.7854,VALID,-0.0339617,VALID,19.5145,VALID,140,VALID,0.655839,
2003-04-01, 03:37:00,VALID,915.784,VALID,0,VALID,99.7892,VALID,-0.0339617,VALID,19.4948,VALID,150,VALID,0.776182,
2003-04-01, 03:38:00,VALID,915.816,VALID,0,VALID,99.7993,VALID,-0.0339617,VALID,19.4988,VALID,142,VALID,0.535262,